Погода в Грачах

Россия / Астраханская область     47°47′44″N   46°16′31″E
темп.,
°C
ветер,
м/с
пор.,
м/с
влажн.,
%
обл.,
%
осадки,
мм/ч
давл.,
гПа
погр.,
м
9 мая, вс
вс901:00+16ю6124638 0.0 1013297
04:00+14ююв410576 0.0 1012237
07:00+15юв6126676 0.0 1012422
10:00+20ююв81044100 0.0 1011963
13:00+23ю7938100 0.0 10091829
16:00+23ююв8945100 0.0 10081728
19:00+21ююв71052100 0.0 1008852
22:00+18ююв51062100 0.0 1008338
10 мая, пн
пн1001:00+12зсз9988100 0.0 1008381
04:00+9зсз111588100 4.0 1009640
07:00+8з111489100 4.1 1011782
10:00+8з91282100 4.9 1012760
13:00+9з91175100 0.1 1013881
16:00+10зюз7970100 2.3 10141196
19:00+10юз5771100 0.3 1015946
22:00+8ю487521 0.3 1015272
11 мая, вт
вт1101:00+6ю4108117 0.0 1016265
04:00+7ююв5108518 0.0 1018345
07:00+8ю510800 0.0 1019423
10:00+13юв555825 0.0 10221164
13:00+16вюв3343100 0.0 10211344
16:00+18в5638100 0.0 10211867
19:00+17всв3542100 0.0 1021296
22:00+13всв47542 0.0 1021116
12 мая, ср
ср1201:00+10всв46660 0.0 1021100
04:00+9ссв33735 0.0 102038
07:00+11ссв237777 0.0 1020148
10:00+16ссв22635 0.0 1020682
13:00+20всв23485 0.0 10191319
16:00+23в444370 0.0 10181836
19:00+22всв234874 0.0 1018823
22:00+18ссз336144 0.0 101719
13 мая, чт
чт1301:00+17с33691 0.0 101722
04:00+15ссв12820 0.0 101711
07:00+16юв46733 0.0 1018197
10:00+22юв44520 0.0 1018835
13:00+25вюв44400 0.0 10181426
16:00+27вюв45385 0.0 10181574
19:00+26вюв45440 0.0 1018267
22:00+22в455023 0.0 101857